This is the latest recevied weather packets stored in our database for station/object KE6YLF. If no packets are shown the sender has not sent any weather packets the latest 10 day(s).
| Time | Temp. | Humidity | Pressure | Rain* | Wind** | Luminosity | Snow |
|---|---|---|---|---|---|---|---|
| 1777577243 | 30.56° C | 18% | 1071.4 hPa | 0 mm | - | - | - |
| 1777576939 | 30° C | 18% | 1071.5 hPa | 0 mm | - | - | - |
| 1777576635 | 30° C | 19% | 1071.5 hPa | 0 mm | - | - | - |
| 1777576330 | 30° C | 19% | 1071.7 hPa | 0 mm | - | - | - |
| 1777576026 | 30° C | 19% | 1071.6 hPa | 0 mm | - | - | - |
| 1777575722 | 30.56° C | 18% | 1071.9 hPa | 0 mm | - | - | - |
| 1777575418 | 30° C | 19% | 1071.9 hPa | 0 mm | - | - | - |
| 1777575115 | 31.11° C | 18% | 1071.9 hPa | 0 mm | - | - | - |
| 1777574810 | 29.44° C | 19% | 1072 hPa | 0 mm | - | - | - |
| 1777574508 | 28.89° C | 20% | 1072.1 hPa | 0 mm | - | - | - |
| 1777574204 | 28.89° C | 19% | 1072.1 hPa | 0 mm | - | - | - |
| 1777573899 | 28.33° C | 20% | 1072.1 hPa | 0 mm | - | - | - |
| 1777573599 | 29.44° C | 19% | 1072.3 hPa | 0 mm | - | - | - |
| 1777573296 | 30° C | 18% | 1072.3 hPa | 0 mm | - | - | - |
| 1777572992 | 30° C | 18% | 1072.3 hPa | 0 mm | - | - | - |
| 1777572688 | 29.44° C | 18% | 1072.5 hPa | 0 mm | - | - | - |
| 1777572387 | 29.44° C | 19% | 1072.4 hPa | 0 mm | - | - | - |
| 1777572085 | 28.89° C | 20% | 1072.4 hPa | 0 mm | - | - | - |
| 1777571784 | 29.44° C | 20% | 1072.6 hPa | 0 mm | - | - | - |
| 1777571482 | 30° C | 18% | 1072.5 hPa | 0 mm | - | - | - |
| 1777571179 | 29.44° C | 19% | 1072.9 hPa | 0 mm | - | - | - |
* Rain latest hour (hover to see other rain measurements)
** Current wind speed in m/s (hover to see current wind gust speed)